This demonstration page uses our WeatherBlox Daily Observations layout. Learn more.

Left ArrowRight Arrow

Hourly Observations for December 18, 2021

Temp ( °F °C ) Dew Point ( °F °C ) Humidity (%) Winds ( mph kmh ) Pressure ( in mb ) Visibility ( mi km ) Precip ( " mm )
12:59 am 00:59 Mostly Cloudy with Mist and Fog 55 12.8 52 11.1 90 90 Calm 30.15 1021 6 10 0.00 0.00
1:59 am 01:59 Mostly Cloudy with Mist and Fog 52 11.1 50 10 93 93 Calm 30.14 1021 5 8 0.00 0.00
2:04 am 02:04 Partly Cloudy with Mist and Fog 52 11.1 49 9.4 89 89 SSE 3 6 30.14 1021 1 2 0.00 0.00
2:06 am 02:06 Mostly Cloudy with Mist and Fog 51 10.6 49 9.4 92 92 S 3 6 30.14 1021 1 1 0.00 0.00
2:36 am 02:36 Mostly Cloudy with Mist and Fog 52 11.1 49 9.4 89 89 Calm 30.14 1021 1 1 0.00 0.00
2:47 am 02:47 Mostly Cloudy with Mist and Fog 53 11.7 51 10.6 93 93 Calm 30.14 1021 4 6 0.00 0.00
2:59 am 02:59 Mostly Cloudy with Mist and Fog 54 12.2 51 10.6 90 90 Calm 30.14 1021 4 6 0.00 0.00
3:59 am 03:59 Cloudy with Mist and Fog 56 13.3 53 11.7 90 90 Calm 30.13 1020 5 8 0.00 0.00
4:08 am 04:08 Cloudy with Mist and Fog 57 13.9 54 12.2 90 90 S 3 6 30.12 1020 5 8 0.00 0.00
4:59 am 04:59 Cloudy with Mist and Fog 58 14.4 55 12.8 90 90 Calm 30.11 1020 5 8 0.00 0.00
5:15 am 05:15 Cloudy with Fog 58 14.4 56 13.3 93 93 Calm 30.11 1020 1 1 0.00 0.00
5:59 am 05:59 Cloudy with Fog 59 15 56 13.3 90 90 Calm 30.11 1020 1 1 0.00 0.00
6:06 am 06:06 Mostly Cloudy with Fog 59 15 57 13.9 93 93 Calm 30.11 1020 0 0 0.00 0.00
6:49 am 06:49 Mostly Cloudy with Fog 60 15.6 57 13.9 90 90 SSW 5 7 30.11 1020 1 1 0.00 0.00
6:59 am 06:59 Mostly Cloudy with Fog 60 15.6 57 13.9 90 90 SW 3 6 30.11 1020 1 1 0.00 0.00
7:15 am 07:15 Mostly Cloudy with Fog 59 15 57 13.9 93 93 SW 3 6 30.11 1020 1 1 0.00 0.00
7:27 am 07:27 Mostly Cloudy with Fog 59 15 57 13.9 93 93 SW 6 9 30.11 1020 1 1 0.00 0.00
7:39 am 07:39 Mostly Cloudy with Fog 59 15 57 13.9 93 93 SSW 5 7 30.11 1020 0 0 0.00 0.00
7:59 am 07:59 Mostly Cloudy with Fog 59 15 58 14.4 96 96 SSW 5 7 30.10 1019 0 0 0.00 0.00
8:59 am 08:59 Cloudy with Mist and Fog 60 15.6 58 14.4 93 93 SSW 6 9 30.11 1020 1 2 0.00 0.00
9:13 am 09:13 Cloudy with Mist and Fog 60 15.6 58 14.4 93 93 VRB 6 9 30.11 1020 2 3 0.00 0.00
9:22 am 09:22 Cloudy with Mist and Fog 60 15.6 58 14.4 93 93 SSW 7 11 30.11 1020 2 3 0.00 0.00
9:59 am 09:59 Cloudy with Mist and Fog 61 16.1 58 14.4 90 90 SW 8 13 30.10 1019 3 5 0.00 0.00
10:17 am 10:17 Cloudy with Mist and Fog 62 16.7 58 14.4 86 86 SW 8 13 30.10 1019 3 5 0.00 0.00
10:59 am 10:59 Cloudy with Mist and Fog 62 16.7 58 14.4 86 86 SW 12 19 30.08 1019 4 6 0.00 0.00
11:59 am 11:59 Cloudy 65 18.3 58 14.4 78 78 WSW 8 13 30.06 1018 7 11 0.00 0.00
12:59 pm 12:59 Cloudy 67 19.4 58 14.4 73 73 SW 8 13 30.02 1017 9 14 0.00 0.00
1:59 pm 13:59 Mostly Cloudy 68 20 58 14.4 70 70 SW 8 13 30.00 1016 10 16 0.00 0.00
2:59 pm 14:59 Cloudy 68 20 58 14.4 70 70 WSW 6 9 29.99 1016 10 16 0.00 0.00
3:30 pm 15:30 Cloudy 68 20 58 14.4 70 70 SW 9 15 29.99 1016 10 16 0.00 0.00
3:59 pm 15:59 Cloudy 67 19.4 59 15 76 76 SSW 7 11 29.98 1015 10 16 0.00 0.00
4:59 pm 16:59 Cloudy 67 19.4 59 15 76 76 SSW 6 9 29.98 1015 8 13 0.00 0.00
5:59 pm 17:59 Cloudy 67 19.4 60 15.6 79 79 S 7 11 29.95 1014 9 14 0.00 0.00
6:59 pm 18:59 Cloudy 67 19.4 60 15.6 79 79 S 9 15 29.94 1014 9 14 0.00 0.00
7:59 pm 19:59 Cloudy 67 19.4 61 16.1 81 81 S 9 15 29.91 1013 10 16 0.00 0.00
8:59 pm 20:59 Cloudy 68 20 62 16.7 81 81 SSW 8 13 29.91 1013 10 16 0.00 0.00
9:59 pm 21:59 Cloudy 69 20.6 62 16.7 78 78 SSW 8 13 29.90 1013 10 16 0.00 0.00
10:59 pm 22:59 Cloudy 69 20.6 62 16.7 78 78 SSW 10 17 29.89 1012 10 16 0.00 0.00
11:59 pm 23:59 Mostly Cloudy 69 20.6 61 16.1 76 76 SW 12 19 29.87 1012 10 16 0.00 0.00

Powered by AerisWeather